Location: Bryzozowice
(50.3667°N, 18.9667°E)
Time: 16:55:21
(UTC+00:00)

STARLINK-1077 - Pass Details

Date: 24 January 2020
Orbit: 349 x 351 km, 53.0° (Epoch: 21 February)

Event Time Altitude Azimuth Distance (km) Brightness Sun altitude
Rises 17:02:04 0° 277° (W) 2,174 8.1 -15.6°
Reaches altitude 10° 17:04:08 10° 284° (WNW) 1,330 6.6 -15.9°
Maximum altitude 17:07:01 47° 0° (N) 481 3.2 -16.4°
Enters shadow 17:07:26 43° 30° (NNE) 516 3.2 -16.4°
